Location: Drignac
(45.1667°N, 2.0333°E)
Time: 13:01:25
(UTC+00:00)

STARLINK-1110 - Pass Details

Date: 29 March 2020
Orbit: 548 x 551 km, 53.0° (Epoch: 26 May)

Event Time Altitude Azimuth Distance (km) Brightness Sun altitude
Rises 19:12:47 0° 302° (WNW) 2,731 8.9 -10.6°
Reaches altitude 10° 19:15:02 10° 304° (NW) 1,834 7.6 -10.9°
Maximum altitude 19:19:12 74° 30° (NNE) 578 3.6 -11.6°
Enters shadow 19:22:10 18° 114° (ESE) 1,367 5.0 -12.1°
